Wind_Speed
5 5 9 14 16 15 14 12 8 4 4 5 4 5 7 7 4 2 5 6 11 12 7 4 5 7 10 14 14 12 13 16 18 18 21 24 25 25 26 25 24 23 22 22 22 21 22 22 22 22 22 22 22 22 23 24 25 26 28 30 31 33 34 35 36 37 38 39 40 40 41 42 42 43 44 44 45 45 44 44 44 44 45 44 44 43
5 6 14 16 14 13 12 9 5 2 3 4 2 6 7 8 5 5 2 5 8 9 5 3 5 10 13 13 11 12 15 17 16 18 22 23 24 25 25 24 23 22 21 21 21 21 21 22 22 22 22 22 22 22 23 24 25 26 27 29 30 32 34 35 36 37 39 39 40 41 41 42 42 43 44 45 45 46 45 44 44 44 44 44 44 44
5 12 15 13 12 10 8 6 3 3 3 3 4 8 7 9 7 4 2 4 4 5 4 3 6 10 10 9 11 15 16 15 16 19 21 23 25 25 24 24 23 22 21 21 22 22 22 22 22 22 22 22 23 23 24 25 26 27 28 29 30 32 33 35 36 38 39 40 41 42 42 43 43 44 44 45 45 46 46 45 45 45 46 46 47 48
10 15 14 11 10 7 6 6 5 4 3 3 8 9 10 10 8 6 7 5 4 2 2 2 6 10 8 8 14 15 14 14 17 21 23 24 25 25 25 24 23 23 22 22 23 23 23 23 23 23 23 23 23 24 25 25 26 28 29 30 31 32 34 35 36 38 39 40 41 41 42 43 43 44 45 45 46 47 48 48 48 50 50 51 52 53
15 13 11 9 8 7 8 11 10 8 6 7 10 10 10 10 8 9 9 9 8 5 4 4 8 10 9 12 16 15 13 15 19 22 24 25 26 26 26 26 25 25 24 23 23 23 24 24 24 24 24 24 25 25 26 27 28 29 30 31 33 33 34 36 37 38 38 39 40 41 41 42 44 45 46 48 49 50 51 52 53 54 55 56 58 58
17 12 9 8 9 10 11 13 15 13 10 10 10 9 9 9 9 9 8 8 6 3 5 6 6 8 13 17 17 15 15 16 20 23 24 25 26 26 27 27 27 26 26 26 25 25 26 26 26 26 26 26 26 26 27 28 28 30 31 32 33 34 35 36 37 38 38 39 40 42 44 45 47 49 51 52 54 55 56 56 56 57 57 58 58 59
16 11 9 9 11 12 13 15 15 13 13 13 10 7 8 8 8 9 8 5 3 1 2 4 5 8 16 19 17 17 16 16 20 23 24 26 26 26 27 27 27 27 27 27 27 28 28 29 29 29 29 29 28 28 28 29 29 30 31 32 34 35 36 37 38 39 41 42 44 46 49 50 51 53 54 55 55 56 56 56 55 54 54 54 55 55
13 9 10 12 12 12 14 16 15 14 14 13 9 6 8 8 8 8 7 5 2 2 5 6 8 11 14 17 19 18 16 16 21 24 24 27 27 27 27 27 28 28 27 28 28 28 29 30 31 31 32 31 31 31 30 30 31 31 32 33 35 36 37 38 40 42 44 46 48 50 50 51 51 52 53 52 52 53 52 52 52 52 51 52 52 52
13 10 12 12 13 14 16 16 15 15 14 13 10 5 6 9 7 5 4 5 4 5 6 7 11 10 12 19 19 16 15 18 23 25 25 27 27 27 27 28 28 28 29 29 29 29 30 31 32 32 33 34 34 34 34 34 33 34 34 35 36 38 39 41 42 44 46 48 48 48 48 48 49 49 50 50 50 50 51 51 50 50 50 50 50 50
14 12 13 12 15 16 16 15 14 14 14 14 11 5 4 6 6 3 2 4 6 4 4 7 12 8 11 19 16 12 16 20 24 25 25 28 28 27 27 28 29 30 30 31 31 31 31 32 33 34 34 35 36 36 36 37 37 37 38 38 39 41 42 44 45 47 49 48 47 47 47 48 48 49 49 49 49 49 49 49 49 49 48 48 48 49
13 13 13 13 16 15 14 13 13 15 15 13 12 7 4 6 5 3 2 3 4 2 3 6 13 10 7 13 13 13 18 21 24 24 25 28 29 28 28 28 29 30 30 32 32 33 33 34 34 35 35 36 37 37 38 39 39 40 41 41 42 43 45 46 48 49 50 50 49 49 49 49 50 50 50 49 49 48 49 48 48 47 47 47 47 47
12 12 13 14 14 12 11 11 11 14 14 12 13 10 6 5 6 5 2 3 1 3 5 6 15 13 7 11 16 18 20 23 24 25 25 29 30 30 30 30 30 30 31 33 33 34 35 35 36 36 37 37 38 39 39 40 41 42 43 44 45 45 47 48 48 49 50 51 51 51 51 51 51 51 50 50 49 49 48 48 47 46 45 45 46 46
9 12 14 12 12 13 12 10 10 11 13 14 15 15 9 5 5 4 2 2 2 6 8 11 16 11 12 16 19 18 21 24 25 26 26 28 31 32 33 32 32 32 33 34 35 36 37 37 38 38 39 39 40 40 40 41 42 43 44 45 47 47 48 48 48 49 50 51 52 52 52 51 51 50 50 50 49 48 48 48 47 45 44 44 44 44
6 9 12 11 11 13 12 12 11 10 14 17 16 15 9 3 4 2 3 3 3 8 14 18 15 10 14 18 19 20 22 23 24 25 26 28 31 33 34 35 35 35 35 36 37 38 38 38 39 40 40 41 41 41 41 42 43 44 45 46 48 48 49 49 48 48 50 51 51 52 52 51 50 50 50 49 49 48 48 48 47 45 43 43 43 43
4 5 9 10 9 10 12 12 12 9 12 15 13 9 6 4 3 1 3 1 5 12 19 17 8 7 13 20 23 21 19 20 23 24 26 29 31 33 35 35 36 37 38 38 39 39 40 40 41 41 42 42 41 42 42 43 44 44 46 47 48 49 49 49 48 48 49 50 51 51 51 51 50 49 49 48 48 48 47 47 46 44 43 42 42 42
2 2 7 10 10 11 11 11 11 9 8 10 10 5 4 3 1 3 5 7 10 12 14 11 8 13 20 24 23 19 19 22 24 26 29 31 33 35 37 36 37 39 39 40 40 41 42 42 43 43 43 43 43 42 42 43 43 45 46 48 48 48 48 48 47 47 48 49 50 50 50 50 50 49 48 47 47 47 46 46 45 44 43 41 41 40
1 2 5 9 11 10 10 10 10 9 7 8 8 6 5 3 3 5 7 9 8 6 7 8 13 21 23 20 20 20 24 26 26 29 32 34 36 38 39 38 39 41 42 42 42 42 44 45 45 46 46 45 45 44 44 43 43 45 46 46 47 46 47 47 47 46 47 48 49 49 49 49 49 48 48 47 46 45 45 44 44 43 42 40 39 39
2 3 3 6 9 9 9 9 9 8 8 7 7 8 6 4 4 5 5 5 4 3 6 9 15 23 20 16 23 26 26 28 30 33 36 37 39 40 41 41 41 44 45 45 45 45 46 47 48 49 48 48 47 47 46 46 45 46 46 46 46 46 46 47 46 46 46 48 49 49 49 49 49 48 47 46 45 45 44 43 42 42 41 40 39 38
4 3 3 4 6 8 8 8 8 8 9 9 8 8 8 4 4 5 4 4 3 2 5 9 12 19 21 19 26 28 27 32 35 36 39 41 42 43 43 43 44 47 48 48 48 48 48 50 51 52 51 51 50 50 50 50 50 50 50 50 50 49 49 49 48 47 48 49 50 50 50 49 48 47 46 46 45 44 43 42 41 40 40 39 39 38
4 3 3 4 7 8 8 8 9 10 11 11 11 11 10 5 5 7 5 5 4 2 5 6 5 15 25 25 27 28 30 35 38 39 42 43 43 44 44 45 47 49 50 50 51 51 52 53 53 54 55 54 54 53 54 54 55 55 55 56 56 55 55 54 53 51 51 51 52 52 52 50 48 47 46 45 45 43 42 41 40 40 39 39 39 39
4 4 4 6 9 10 10 10 11 13 12 12 13 13 12 10 8 9 10 11 9 4 3 2 4 20 31 29 27 31 34 40 42 43 44 44 43 44 44 47 50 50 52 52 52 53 54 55 56 57 57 57 56 56 57 57 58 59 59 59 60 60 60 60 58 56 55 54 54 54 54 51 49 47 45 45 44 43 42 41 40 40 39 39 39 39
5 6 8 10 11 11 12 13 14 15 15 17 18 16 16 15 10 7 7 10 11 9 8 4 7 27 38 33 32 36 38 44 46 45 46 44 43 45 47 49 50 51 53 53 54 55 56 57 58 58 59 58 58 58 58 59 60 62 62 62 62 63 64 64 63 61 59 57 57 56 55 53 50 48 46 44 43 42 41 40 39 39 40 40 40 40
7 8 10 12 11 11 13 15 16 18 20 21 20 19 19 17 13 9 5 10 12 13 19 12 10 30 44 37 36 40 43 47 47 45 46 45 45 48 49 50 51 52 53 54 55 56 57 59 59 60 61 59 59 59 59 61 62 63 64 63 64 64 65 65 65 64 63 61 59 56 56 55 52 49 47 43 42 41 40 39 39 39 40 40 40 40
8 8 11 13 12 13 13 14 16 18 19 20 20 21 21 22 21 17 15 18 16 18 23 11 8 31 46 41 39 44 46 48 47 45 46 47 49 51 51 52 53 53 55 55 56 57 58 59 60 61 60 58 58 58 57 58 60 62 63 63 64 65 65 66 67 66 65 63 60 57 57 56 53 51 47 43 41 40 40 39 39 39 40 40 40 40
7 8 11 12 11 11 10 9 11 14 17 21 24 25 24 24 22 19 20 19 16 21 23 8 11 36 48 43 43 46 47 48 47 45 46 48 51 52 52 54 54 55 56 57 57 58 58 59 60 59 56 54 55 55 53 55 58 61 62 63 64 65 65 66 67 67 66 64 60 57 57 57 54 51 47 44 42 40 40 39 39 40 40 40 40 40
11 11 12 10 6 6 8 9 13 18 22 24 27 27 27 25 22 21 19 16 16 21 19 15 25 47 50 44 45 47 47 48 47 45 48 50 52 53 54 55 55 55 57 57 58 58 58 60 59 57 55 54 54 53 54 56 58 60 60 61 63 64 64 66 66 67 66 64 61 58 57 57 53 50 47 44 42 41 40 39 39 40 40 40 40 40
14 15 15 14 14 14 17 18 20 24 27 28 29 28 28 28 26 24 20 22 26 27 25 30 41 49 49 48 49 49 48 47 47 48 51 52 53 55 55 55 56 56 57 57 57 58 59 60 59 58 58 56 54 54 56 58 59 59 59 60 62 62 63 64 65 65 65 63 60 58 57 56 54 51 47 44 43 42 40 40 40 40 40 40 40 40
17 19 18 18 20 22 23 24 24 25 28 30 29 28 28 27 27 27 27 31 35 27 28 41 45 43 47 51 51 50 48 47 50 52 53 54 55 56 56 55 55 55 56 57 58 60 60 60 59 59 58 58 59 61 62 62 61 60 60 60 60 60 61 61 63 63 61 60 59 57 55 56 57 54 49 45 43 41 40 39 39 40 40 39 39 39
18 21 21 21 23 24 26 27 27 27 28 29 29 31 33 31 30 32 33 35 35 31 34 45 45 43 49 52 51 49 47 49 52 54 54 56 56 56 56 55 55 56 57 59 59 59 59 59 59 59 60 62 64 66 67 67 64 62 60 58 58 59 59 60 60 60 58 58 58 56 54 55 59 58 50 45 43 40 39 39 39 39 39 39 39 39
19 22 24 25 27 29 29 29 29 30 30 30 33 37 38 35 32 31 30 31 33 38 42 44 43 45 49 50 49 48 48 50 52 53 55 57 57 56 55 55 56 57 57 58 58 59 59 60 60 60 61 62 63 67 69 68 64 60 57 57 57 57 57 59 59 58 58 58 56 54 52 56 61 58 49 44 41 39 38 38 38 38 38 38 38 38
22 24 26 28 32 35 33 30 30 30 28 34 40 39 33 28 24 25 27 28 30 36 38 36 39 46 48 46 48 51 52 51 52 54 58 59 58 57 56 56 56 56 57 59 60 61 60 58 57 58 60 63 67 70 70 66 60 56 55 56 56 56 56 57 58 58 58 57 55 52 52 58 63 55 46 42 39 37 38 38 38 38 37 38 38 38
25 27 29 29 31 37 37 32 32 32 33 39 40 30 22 19 22 27 28 26 27 30 33 33 38 45 46 45 51 57 56 53 54 57 60 60 60 58 57 57 57 58 61 61 60 59 56 56 59 63 67 72 73 72 68 62 57 54 54 55 55 56 56 56 57 58 57 55 53 52 55 62 62 51 42 38 37 36 37 37 37 37 36 37 37 37
27 29 31 27 28 37 37 31 34 36 32 31 27 23 25 29 32 33 29 24 25 27 30 35 40 43 44 48 54 58 58 58 59 59 61 61 61 59 58 58 59 61 61 59 57 57 59 63 67 71 74 75 73 69 65 59 54 52 53 54 55 56 56 55 56 56 55 53 52 54 60 64 57 44 38 36 35 35 35 35 35 35 35 36 36 37
28 29 30 26 26 34 36 34 35 27 15 16 25 30 35 35 31 28 26 24 25 27 33 39 40 41 46 52 55 57 60 61 60 60 62 61 59 58 59 59 59 60 60 59 61 64 67 71 74 75 75 72 70 67 64 59 55 52 52 51 51 53 54 54 54 53 52 51 53 60 64 58 46 37 35 34 33 34 34 34 34 34 34 35 35 36
26 27 28 26 25 32 36 30 20 12 15 26 34 34 31 27 25 27 29 27 28 32 36 37 38 44 52 54 54 57 60 61 61 62 61 59 57 57 58 60 61 62 63 65 67 69 71 73 74 73 72 69 68 66 63 60 56 52 49 47 47 50 51 51 50 49 49 53 60 64 58 45 36 33 33 32 32 33 33 33 34 33 34 34 34 35
25 25 26 26 25 27 26 14 8 22 40 43 34 28 26 26 28 32 35 34 35 35 35 36 44 51 54 54 55 57 59 62 64 63 59 58 58 59 61 63 64 65 66 67 69 71 72 71 71 70 69 68 66 64 61 57 51 46 44 44 44 44 44 44 45 47 52 60 63 56 43 35 32 31 30 30 31 32 32 33 33 33 33 33 34 34
23 24 25 24 20 19 20 19 25 36 42 35 28 29 31 32 33 34 38 43 40 33 32 41 50 53 52 54 56 56 60 65 67 64 61 62 64 66 68 69 68 68 69 69 70 70 69 68 67 66 65 64 62 59 55 49 43 39 39 39 38 39 41 44 48 54 60 62 54 40 32 31 30 29 29 30 31 31 32 32 32 32 32 33 33 33
21 23 24 20 18 20 20 21 22 21 22 27 31 34 36 34 32 33 40 45 38 31 37 48 51 50 51 53 56 59 62 67 68 67 67 69 71 72 72 71 71 71 70 70 68 67 65 64 63 62 61 59 56 53 49 44 40 39 39 40 41 44 48 52 56 59 57 48 37 30 28 28 27 27 28 29 30 31 31 31 31 31 32 32 32 32
21 22 23 21 23 26 22 16 12 12 22 34 37 35 33 30 32 37 38 38 35 36 44 49 47 49 54 55 59 62 61 63 68 70 70 72 72 72 71 71 70 70 69 67 65 63 62 61 60 59 58 56 53 50 46 43 41 41 41 43 46 49 51 53 52 48 40 32 28 27 26 25 26 27 28 28 30 30 31 31 31 31 31 31 31 32
22 23 25 24 26 29 27 23 20 23 33 40 35 29 29 33 39 34 25 29 41 44 44 47 50 55 58 58 60 62 61 62 66 68 69 70 69 69 68 69 68 67 66 64 62 61 60 59 58 57 56 54 52 49 45 44 43 41 40 40 41 42 42 41 38 34 29 27 26 25 24 25 26 27 28 29 30 30 30 31 30 30 30 30 31 31
25 25 26 26 26 27 26 26 29 35 39 34 25 26 34 39 38 29 23 34 46 46 46 52 56 58 58 58 60 63 63 62 63 65 66 66 66 67 67 67 66 65 63 62 61 60 59 57 56 54 52 51 49 46 44 43 41 39 37 35 34 34 33 32 31 29 27 26 25 24 24 25 26 27 28 29 30 30 30 30 30 30 30 29 30 30
24 22 23 24 23 24 24 25 29 33 32 27 27 35 40 37 33 32 36 40 42 45 52 56 55 56 58 58 59 60 60 60 61 63 64 64 65 66 66 65 65 63 62 62 61 59 57 55 53 51 50 48 46 44 42 39 37 35 34 32 31 31 31 30 29 28 26 25 24 24 25 25 26 27 28 29 29 30 29 29 29 29 28 28 29 29
25 21 22 24 22 21 20 17 16 21 28 33 38 40 37 34 34 37 40 41 44 50 54 54 53 56 56 56 57 58 58 59 60 61 63 64 65 65 64 64 63 62 62 61 58 55 53 51 50 49 48 46 44 41 39 36 34 32 31 31 30 30 30 29 28 26 25 24 24 24 25 26 27 27 28 29 29 29 28 28 28 27 27 27 28 28
25 22 22 24 22 19 20 19 19 27 35 36 35 34 33 34 34 34 38 44 49 52 53 52 54 54 54 55 56 57 58 59 60 62 63 64 64 64 63 62 61 61 60 57 53 50 48 47 47 46 45 43 41 39 37 35 33 32 30 30 29 28 28 26 25 24 24 24 24 25 26 27 27 27 28 28 28 28 28 27 27 27 27 27 27 27
26 26 28 29 27 26 28 30 31 33 33 30 30 33 33 32 31 34 41 46 49 50 51 51 51 52 53 55 55 56 58 59 60 62 63 63 63 62 61 60 59 57 55 51 49 47 46 45 45 43 41 39 38 36 35 33 32 30 29 27 26 25 25 24 24 24 24 24 25 25 26 26 26 27 27 27 27 27 26 26 26 26 25 26 26 27
31 31 31 31 31 31 32 33 32 31 30 31 31 31 30 31 35 41 44 46 48 49 49 50 51 52 53 54 55 57 58 59 61 63 63 62 61 59 59 58 56 53 50 49 47 45 44 42 41 40 39 37 35 34 33 31 30 29 27 26 25 25 24 24 24 24 24 25 25 25 26 26 25 25 25 26 26 26 25 26 26 25 25 25 26 27
31 29 29 29 29 30 32 33 32 30 32 32 31 30 31 35 40 44 46 47 47 47 48 49 51 52 52 54 56 57 58 60 61 62 61 60 58 57 56 55 52 50 48 46 44 43 41 40 39 38 37 36 34 33 32 30 29 28 27 26 25 25 25 25 24 24 24 24 24 25 25 25 25 25 25 25 25 25 25 25 25 25 25 25 26 28
27 27 28 27 26 28 30 32 30 31 32 32 32 34 37 41 45 46 47 47 46 47 48 49 49 51 53 54 56 57 58 60 60 60 59 57 56 55 53 51 49 48 45 43 41 40 39 38 37 37 36 35 33 32 31 30 29 28 27 27 26 26 26 25 25 24 24 24 25 25 25 25 25 25 25 25 25 25 25 25 25 25 25 25 27 29
23 25 25 24 26 28 30 30 31 35 37 35 34 37 42 46 48 47 46 46 46 47 48 48 49 51 53 54 56 57 58 59 59 58 56 54 53 52 50 48 47 45 42 41 39 37 37 36 36 35 34 33 32 31 30 30 29 28 28 27 27 27 27 26 26 26 26 26 26 26 26 26 26 26 26 25 25 25 25 25 26 26 26 26 27 29
20 23 21 23 27 29 29 29 31 36 39 37 37 40 45 47 46 46 45 45 46 46 47 48 50 51 52 54 56 57 58 59 57 54 52 52 51 50 48 46 44 42 40 38 36 34 35 35 34 34 33 32 31 31 30 30 29 29 29 28 28 28 28 28 28 27 27 27 27 27 27 27 26 26 26 26 26 26 25 25 26 27 28 27 27 29
20 21 20 23 26 28 30 30 31 34 36 37 39 43 46 46 45 44 44 44 45 46 47 48 50 51 53 55 56 57 58 56 54 52 51 50 49 47 45 43 42 40 39 36 35 34 34 33 33 33 33 32 32 31 31 30 30 30 29 29 29 29 29 29 28 28 28 28 28 28 28 27 27 27 27 27 27 27 26 26 25 25 27 29 29 29
Wind_Direction
7 15 53 56 49 45 44 49 63 88 92 80 60 10 338 342 354 47 59 360 318 321 326 325 335 326 315 315 320 334 341 337 337 339 338 337 336 335 336 338 339 340 341 339 336 334 334 333 332 330 329 327 325 322 318 315 312 308 306 304 302 300 298 297 296 294 293 291 290 289 288 288 287 288 288 289 289 289 289 289 289 289 290 290 290 290
355 34 58 55 48 44 35 38 72 120 104 107 9 338 339 357 36 110 73 321 297 299 288 266 309 311 312 316 325 334 335 334 335 336 334 335 337 338 340 341 343 344 343 341 338 337 336 334 333 331 329 327 324 321 318 314 311 307 305 302 301 299 297 296 295 294 293 292 291 290 289 289 288 288 289 289 290 290 290 290 290 290 289 289 289 289
48 57 60 54 45 43 30 36 116 155 133 131 343 352 15 23 49 107 357 316 271 277 272 252 289 302 310 317 324 327 327 332 334 333 335 339 341 340 341 342 343 344 343 341 339 338 336 333 332 330 328 326 323 320 317 313 310 307 304 302 300 298 296 295 294 293 292 292 291 290 290 290 290 290 290 291 291 292 291 291 292 292 290 290 290 290
64 58 54 51 45 42 44 63 111 140 112 54 6 22 45 39 42 41 27 63 100 31 354 308 299 304 311 321 326 328 328 331 332 334 338 342 343 340 340 342 342 342 342 340 339 337 335 333 331 329 328 325 322 320 317 314 311 308 305 303 300 299 297 295 293 292 291 290 290 290 291 291 292 291 291 291 292 292 292 291 292 292 290 290 291 291
65 61 48 46 46 50 64 73 78 80 71 41 23 40 54 52 50 24 32 91 101 48 19 338 313 304 317 333 334 334 334 330 330 336 342 344 343 341 340 340 340 340 340 339 337 335 333 331 329 327 326 325 322 320 317 315 312 309 307 304 302 299 297 295 294 293 291 291 291 291 290 290 290 290 290 289 289 290 289 289 289 289 288 287 288 288
63 57 42 44 52 58 65 65 64 61 56 44 39 53 53 54 64 41 48 108 125 56 18 342 323 303 319 335 335 333 333 327 328 336 343 344 341 340 339 338 338 338 338 338 336 334 332 330 328 327 325 324 322 319 316 314 312 309 307 305 303 300 298 296 295 293 292 291 290 290 290 288 287 287 288 287 287 287 287 288 287 286 286 286 287 287
58 53 47 54 60 63 61 59 58 53 47 43 38 52 60 57 64 56 56 91 130 68 359 319 321 306 314 329 331 329 327 320 326 336 341 342 339 337 337 336 336 337 336 336 334 333 331 329 328 327 325 324 321 318 315 313 311 308 306 304 302 300 298 296 294 293 292 290 289 289 290 289 287 287 288 288 287 287 288 288 288 288 289 289 289 288
62 60 60 62 63 59 54 53 50 44 44 39 24 38 62 53 55 59 51 57 59 296 268 280 312 311 308 321 325 323 322 319 326 334 337 339 338 335 335 335 335 335 334 333 332 330 328 327 325 324 323 322 319 317 314 312 309 306 304 302 300 298 297 295 294 294 293 292 291 291 291 290 290 290 290 290 290 290 290 290 290 290 290 290 290 290
64 62 63 59 57 49 47 47 41 39 40 32 23 26 53 46 40 47 41 31 7 297 270 303 323 318 304 312 316 315 315 322 328 329 331 335 336 334 334 333 333 333 332 331 329 327 325 324 323 321 320 319 317 315 313 312 309 306 303 301 299 297 296 294 294 294 295 295 294 294 294 293 293 293 293 293 293 293 292 292 292 292 291 291 290 289
63 59 58 50 49 43 40 40 33 34 33 27 29 36 64 45 17 32 74 16 357 291 269 341 347 342 306 304 308 309 312 323 329 326 326 331 334 334 333 333 332 332 330 329 327 326 324 322 321 318 317 316 314 312 311 311 309 306 304 301 299 298 296 295 295 295 297 298 298 298 298 298 297 296 296 295 295 294 294 294 293 293 293 292 291 290
62 61 57 48 47 38 31 31 28 32 27 18 28 45 76 54 40 97 144 337 348 285 255 350 352 348 305 297 306 310 314 323 326 324 322 326 331 333 333 333 332 330 328 327 326 325 323 321 319 317 315 314 312 311 310 309 307 305 303 301 300 298 297 297 297 298 299 300 301 301 302 301 300 299 298 298 297 297 296 295 295 294 293 292 291 290
54 54 51 49 47 38 30 25 25 31 24 15 25 35 52 53 59 88 53 354 345 277 269 308 333 327 270 287 312 312 315 320 322 323 320 321 327 331 332 332 332 330 328 326 325 324 323 321 319 317 316 314 311 310 310 308 306 304 303 301 299 298 298 298 299 300 300 301 302 302 302 302 301 300 300 299 299 298 297 297 296 294 293 291 291 290
43 40 39 39 35 33 29 21 23 26 20 20 25 31 41 39 34 39 356 350 242 261 283 306 325 311 267 292 314 312 312 316 319 321 319 320 325 328 329 331 331 330 328 326 324 323 323 321 319 317 316 314 312 311 309 307 305 303 302 300 299 298 298 298 299 300 300 301 302 302 302 302 301 301 300 300 300 299 298 297 296 295 293 292 290 289
44 36 30 27 25 23 18 20 25 17 18 23 22 27 37 52 44 353 296 325 271 272 298 312 318 293 277 304 321 315 312 315 318 320 318 320 323 325 327 329 329 329 328 326 324 323 322 321 319 318 316 315 313 310 308 306 304 302 300 299 298 297 297 298 299 300 300 300 301 301 301 301 301 301 301 300 300 299 299 298 297 296 294 292 290 289
52 35 20 21 22 14 13 22 23 13 22 23 19 29 37 63 101 231 268 270 269 287 303 309 308 275 288 312 322 317 315 319 322 323 321 322 324 323 324 326 327 327 326 326 324 322 322 321 319 318 317 315 313 310 307 305 303 300 298 297 296 297 297 298 299 299 299 299 300 300 301 301 301 301 301 300 300 299 298 298 297 296 293 291 289 288
45 16 13 14 10 6 10 15 12 15 25 18 17 23 6 15 170 255 278 273 276 293 300 291 273 282 296 311 321 322 324 326 326 325 323 325 325 322 322 324 324 324 324 324 323 322 321 320 319 319 317 314 312 309 306 304 301 298 296 296 296 297 297 298 299 299 298 299 299 300 301 301 301 301 301 300 299 298 297 296 296 294 292 290 289 287
284 302 360 10 5 1 7 6 3 8 9 8 17 13 347 320 276 288 290 287 287 287 286 270 279 296 305 318 335 335 330 330 328 324 324 326 326 322 320 321 322 323 323 322 322 322 321 320 319 319 317 314 311 308 306 304 300 297 297 297 297 297 297 297 298 298 298 299 299 300 301 301 301 301 301 300 299 298 296 295 294 293 291 289 288 287
323 284 319 359 356 351 360 1 354 355 352 352 4 5 351 311 291 290 282 310 328 277 273 263 278 297 300 317 339 337 329 330 328 324 325 325 326 323 319 319 320 322 322 322 322 322 321 320 319 319 318 315 312 310 308 306 304 302 301 300 298 297 297 298 298 299 300 301 301 301 301 301 301 301 300 300 299 297 295 293 292 291 289 288 286 285
351 318 301 323 329 336 346 344 343 345 343 341 340 344 345 324 284 278 276 313 325 284 284 274 277 290 290 307 334 335 328 328 327 325 325 325 326 323 319 318 320 321 322 322 322 322 321 320 319 319 319 317 315 313 312 311 310 308 307 305 303 302 302 302 303 304 305 305 304 302 301 301 300 300 300 299 298 296 294 292 289 288 287 286 286 285
347 322 307 302 302 312 317 317 328 330 329 334 332 330 334 321 275 277 274 265 268 257 287 296 281 291 305 322 331 329 328 328 328 327 326 326 325 321 318 320 322 322 321 322 322 322 321 320 320 320 320 318 317 315 314 314 313 312 310 309 308 308 307 307 308 308 309 308 305 303 302 302 300 300 299 298 296 294 292 290 288 287 286 285 285 285
316 296 293 295 294 299 302 302 308 312 314 316 318 322 323 317 292 284 279 267 264 241 261 322 268 289 316 334 325 322 329 329 330 329 327 326 323 319 319 321 322 321 321 322 322 321 320 320 319 319 319 319 317 316 315 314 314 313 312 311 310 309 308 309 309 309 309 309 306 303 302 302 301 299 298 296 294 292 290 288 286 286 285 285 285 285
299 286 292 297 294 290 291 293 295 299 304 305 309 312 312 314 299 279 278 267 256 239 252 264 265 293 317 331 321 323 329 328 330 330 326 325 321 320 322 322 322 321 320 321 321 320 319 318 318 318 318 318 317 316 315 314 314 313 313 311 310 309 308 308 308 307 308 308 306 303 302 302 301 299 297 294 292 290 288 286 285 285 285 285 285 284
297 283 292 303 300 291 290 291 288 291 297 299 301 303 305 308 294 267 262 275 268 258 266 263 253 290 312 324 321 324 326 327 331 330 325 324 321 322 323 322 321 319 319 320 320 319 318 317 317 316 315 317 317 316 314 313 314 313 312 310 307 307 306 305 304 304 305 306 305 304 302 302 302 299 295 292 290 288 286 285 284 284 284 284 284 284
304 285 296 307 303 294 291 288 283 284 291 294 296 298 298 300 295 283 272 277 277 266 270 268 242 285 308 324 322 322 325 327 330 327 323 322 321 323 322 321 321 319 318 320 318 317 316 315 314 313 314 316 316 314 312 310 311 309 307 305 303 303 303 302 301 301 302 303 304 304 302 301 301 299 295 291 289 286 284 283 283 283 283 284 283 283
308 293 299 310 313 310 305 295 288 290 298 300 300 299 296 295 292 282 271 268 268 269 269 248 248 286 308 322 319 322 327 327 327 325 322 321 321 322 321 320 320 318 318 318 316 315 314 313 313 313 313 314 313 310 307 305 305 304 302 300 299 300 299 298 298 298 299 301 304 304 302 300 299 298 294 291 288 285 284 283 283 283 283 283 283 282
302 296 297 296 287 291 296 298 303 306 306 304 303 302 299 294 287 281 273 257 260 272 262 236 266 293 311 320 319 326 329 325 325 324 322 322 321 321 321 320 319 318 316 315 313 312 312 312 313 311 311 311 310 307 304 303 303 302 300 297 296 296 296 295 295 295 296 299 302 302 300 298 299 298 294 291 288 285 284 283 283 283 283 283 283 282
298 296 299 292 281 284 293 301 309 310 306 304 305 304 299 295 290 282 267 259 271 277 268 269 280 294 309 318 322 328 329 324 324 324 323 323 321 320 320 319 318 316 314 312 311 311 311 312 311 308 307 307 307 305 304 304 304 303 300 297 296 295 294 293 293 293 294 297 299 300 299 299 301 300 295 291 287 284 284 284 284 284 284 284 283 283
297 297 300 298 296 299 301 304 310 308 303 302 303 302 300 298 291 277 268 277 285 277 274 290 296 293 301 315 323 326 326 323 323 325 324 322 320 320 320 318 316 313 311 310 310 310 310 310 308 307 305 305 306 308 310 310 309 306 304 300 297 296 294 294 293 292 294 296 297 299 300 300 302 302 296 290 286 284 283 284 284 284 284 284 284 284
298 297 300 299 299 301 301 304 308 305 301 300 300 301 302 300 293 286 285 292 289 272 277 298 303 296 302 317 324 324 324 323 323 323 321 320 320 319 319 317 314 312 311 310 310 310 310 309 308 307 306 307 310 312 314 314 311 308 306 302 300 298 296 295 293 291 294 298 298 298 298 298 302 302 295 288 284 282 283 284 283 284 284 284 284 284
297 297 301 300 299 300 302 304 305 303 300 299 300 303 305 303 297 291 292 298 292 281 286 299 300 300 311 322 324 324 324 322 320 320 319 321 321 320 319 317 315 313 313 312 311 311 312 311 310 309 310 310 311 311 312 312 310 308 305 303 302 300 298 297 295 292 296 299 297 295 294 296 301 301 291 285 283 282 283 284 283 284 285 284 284 284
298 297 301 302 300 301 304 306 304 302 300 299 302 306 307 302 294 289 292 298 293 289 296 302 297 303 317 326 324 323 323 320 318 319 321 323 323 322 321 319 318 316 315 314 314 314 314 312 310 309 309 309 309 310 311 311 311 309 307 305 303 302 300 298 296 295 297 297 293 289 289 295 301 298 287 283 283 283 284 284 284 285 285 285 285 284
298 297 300 302 298 299 305 307 304 303 301 299 303 310 311 301 296 298 300 299 295 295 301 301 297 305 320 326 324 323 323 321 321 322 323 323 324 324 323 322 320 318 317 317 317 315 313 310 309 309 309 309 310 310 311 312 312 310 307 305 303 301 299 298 297 296 294 291 286 284 288 296 299 294 284 282 283 282 284 284 285 286 285 286 285 284
298 296 298 300 296 298 304 306 305 307 306 303 309 319 317 310 306 304 301 299 299 299 299 300 303 312 323 325 323 324 324 324 324 323 323 323 324 325 324 322 321 319 318 317 314 312 310 309 309 309 308 308 309 309 311 312 310 306 304 302 301 300 299 299 297 293 288 283 281 284 291 296 296 288 282 283 282 282 284 283 284 285 285 285 285 284
296 295 296 296 291 294 302 307 307 306 300 303 315 318 315 312 307 300 298 301 304 304 304 307 311 319 324 324 324 324 324 324 323 322 322 323 324 324 322 321 320 318 316 314 311 311 310 309 308 307 307 308 309 311 311 310 307 303 300 299 299 299 299 297 292 286 280 279 283 290 295 295 291 284 283 284 283 284 284 284 286 286 285 286 285 284
297 297 294 291 287 292 303 312 313 300 291 302 312 317 318 316 310 304 302 304 308 311 312 312 317 323 325 325 324 323 323 322 321 321 323 323 323 322 320 319 317 315 313 311 310 309 309 308 308 309 310 311 311 311 309 308 306 304 302 301 300 298 295 289 283 278 277 282 289 294 295 291 286 284 285 285 285 285 286 286 288 287 287 287 287 286
298 297 293 291 290 293 299 301 286 296 303 308 316 326 328 323 319 315 310 309 314 318 318 319 323 326 326 325 324 322 321 320 321 322 323 322 320 319 318 317 315 313 312 311 311 312 312 312 311 311 311 311 310 310 309 309 308 307 306 305 300 294 286 279 277 279 283 288 293 294 292 288 287 287 286 286 286 286 287 288 289 289 289 289 288 288
298 296 293 293 291 290 289 283 287 299 306 313 326 334 330 325 323 320 313 313 319 323 324 326 327 326 325 323 321 320 319 320 322 323 322 319 318 318 317 317 315 314 315 315 315 315 315 313 312 312 312 312 312 312 312 312 310 308 306 302 295 287 281 280 282 285 288 291 293 292 290 289 289 288 288 288 288 289 290 290 291 291 291 290 290 290
298 294 291 287 285 286 286 290 300 303 303 312 324 329 327 325 325 321 313 312 319 326 328 328 327 324 322 320 318 318 319 320 321 322 320 318 318 318 318 317 317 318 318 318 318 317 316 315 315 315 315 316 317 316 313 309 304 298 295 293 289 285 284 286 287 289 291 294 294 293 292 292 291 291 291 291 291 292 292 292 293 293 293 293 293 292
301 297 289 277 278 283 279 279 286 276 290 310 322 326 325 324 324 321 314 312 322 331 330 327 324 321 319 318 317 318 319 318 319 319 318 318 318 318 319 319 319 320 320 320 319 318 318 318 318 318 319 319 320 319 316 311 305 300 295 292 289 288 289 290 291 293 297 299 298 296 296 296 295 295 294 294 294 294 294 295 296 295 295 295 294 293
304 301 290 278 281 285 278 272 271 275 294 312 322 324 325 325 323 321 312 313 323 328 326 323 321 319 318 317 317 317 317 316 316 316 316 317 318 319 320 320 321 322 321 321 320 320 321 322 322 323 324 324 323 322 320 317 314 311 306 300 296 296 296 297 299 303 305 304 303 303 302 301 300 299 298 298 297 297 297 298 298 298 297 296 295 295
302 300 292 285 287 288 277 269 276 289 303 316 322 324 325 324 321 316 311 316 321 322 320 321 320 319 317 315 314 315 315 314 314 315 317 318 319 320 321 322 322 322 322 323 325 326 327 328 329 329 328 327 326 324 322 320 319 318 316 314 311 309 308 309 310 311 310 310 310 309 307 305 303 302 301 300 300 300 301 301 301 300 299 298 297 296
299 297 292 288 291 291 282 274 282 296 311 322 322 321 322 321 318 314 312 315 316 316 317 319 317 315 314 313 313 314 315 316 317 318 319 320 321 322 323 323 324 325 327 329 331 332 333 333 334 333 331 330 329 328 327 328 328 327 326 323 320 318 316 316 316 316 317 317 316 312 309 307 305 304 303 302 302 303 303 303 302 301 300 299 298 297
298 291 288 290 295 296 287 276 282 301 313 317 316 316 317 315 314 313 311 312 314 315 317 316 314 314 314 315 316 317 318 320 320 321 321 321 323 324 325 326 328 331 333 334 335 336 337 337 337 336 335 335 335 335 335 335 335 333 330 327 324 322 322 322 323 322 322 319 316 313 310 308 307 307 306 306 305 305 305 305 304 302 302 301 300 298
299 293 292 295 297 292 282 281 295 305 308 310 312 311 311 312 313 311 309 312 315 316 316 316 315 316 317 318 320 321 322 322 321 321 322 324 326 327 328 331 333 335 336 337 339 341 342 341 340 339 340 340 341 341 341 340 339 337 335 333 331 330 329 329 327 325 323 320 317 314 312 312 312 311 310 309 309 309 308 307 306 305 304 303 301 300
302 304 302 299 296 292 290 298 311 315 312 312 312 313 315 317 314 310 310 313 315 315 316 317 317 318 320 321 322 322 322 322 323 324 326 328 329 331 332 335 336 337 338 340 343 345 345 343 342 342 343 345 346 346 346 345 344 344 343 341 339 337 335 332 329 327 325 322 319 318 316 316 315 313 313 312 310 310 310 308 307 306 306 304 302 301
309 309 304 302 302 303 305 315 324 323 318 318 318 319 321 318 314 314 315 316 316 317 318 319 320 321 323 323 323 323 323 324 326 327 329 331 332 333 335 337 338 339 341 345 347 348 348 346 345 345 346 348 349 350 350 350 349 350 349 347 344 341 338 335 333 331 328 325 323 321 319 318 317 315 314 313 312 312 311 310 309 308 307 306 304 302
312 306 301 303 305 304 312 326 330 321 318 323 324 323 321 317 316 317 318 318 319 320 320 322 322 323 323 323 324 325 326 327 328 330 332 333 334 336 337 338 339 342 345 349 350 350 349 349 349 349 350 351 352 352 353 353 353 352 351 348 346 343 340 338 336 334 331 328 326 323 321 320 319 317 316 315 315 314 313 312 310 309 309 307 305 303
309 301 302 306 302 303 316 330 327 317 319 326 326 323 321 319 319 321 320 321 321 322 322 323 324 324 324 325 326 327 328 329 331 332 333 334 336 338 338 339 342 345 348 351 352 351 351 351 352 353 353 354 354 354 354 354 354 353 351 349 346 344 342 340 338 336 333 330 328 326 324 323 322 321 320 319 318 316 315 313 311 310 310 309 306 305
300 295 301 302 300 308 323 330 324 317 322 329 329 325 322 321 321 322 322 322 322 323 324 324 324 325 326 327 328 329 330 331 333 334 335 336 337 339 340 342 344 347 350 352 353 352 351 352 354 355 355 355 354 353 353 353 353 352 350 349 347 345 343 341 339 337 334 332 331 329 328 327 326 324 323 322 321 319 317 315 313 312 311 309 307 307
291 293 298 295 298 313 328 330 322 319 323 328 327 322 320 321 322 323 322 323 324 324 325 325 325 327 328 329 330 331 332 333 334 335 336 338 339 340 341 344 346 348 350 352 352 352 353 354 355 355 355 354 354 353 352 352 352 351 350 349 347 345 343 342 342 340 337 335 333 332 331 330 328 326 325 324 321 320 318 316 314 313 311 309 307 307
287 292 295 293 302 317 326 326 320 318 321 323 322 320 320 322 322 323 323 323 324 325 326 326 328 329 330 331 332 333 333 335 336 337 338 339 340 341 343 345 347 348 350 352 352 353 354 355 355 355 355 354 353 353 352 352 351 351 350 348 347 346 344 343 343 341 339 337 335 333 332 331 329 327 326 323 321 319 317 315 314 312 311 310 310 309
Height
3122 3122 3122 3122 3123 3122 3122 3122 3122 3123 3123 3123 3123 3123 3123 3122 3122 3122 3121 3120 3118 3117 3116 3116 3117 3117 3117 3116 3115 3115 3115 3114 3113 3112 3111 3109 3107 3106 3104 3102 3100 3098 3097 3095 3094 3093 3091 3090 3089 3087 3086 3085 3083 3082 3081 3080 3079 3078 3077 3076 3075 3074 3073 3072 3071 3070 3069 3068 3066 3065 3064 3062 3061 3059 3058 3056 3055 3055 3054 3053 3052 3050 3049 3048 3047 3047
3122 3122 3122 3123 3123 3123 3122 3122 3122 3122 3122 3122 3122 3122 3121 3120 3120 3120 3120 3119 3117 3116 3115 3116 3117 3117 3116 3115 3114 3114 3113 3113 3112 3111 3109 3107 3106 3103 3101 3100 3098 3096 3094 3093 3091 3090 3088 3087 3086 3085 3083 3082 3081 3080 3079 3078 3077 3076 3075 3074 3073 3072 3070 3069 3068 3067 3065 3064 3063 3062 3060 3059 3057 3055 3054 3052 3051 3050 3049 3048 3047 3046 3045 3043 3042 3041
3122 3123 3123 3124 3124 3123 3122 3122 3121 3121 3121 3121 3121 3121 3120 3119 3119 3120 3119 3118 3116 3115 3115 3116 3116 3116 3115 3115 3114 3113 3112 3111 3111 3109 3108 3106 3104 3101 3099 3097 3095 3094 3092 3090 3088 3087 3086 3084 3083 3081 3080 3079 3078 3077 3076 3075 3074 3073 3072 3071 3070 3069 3068 3066 3065 3064 3062 3061 3059 3058 3056 3055 3053 3051 3050 3048 3046 3045 3044 3043 3042 3040 3039 3038 3036 3035
3122 3123 3124 3124 3124 3124 3123 3121 3121 3121 3121 3121 3120 3119 3119 3118 3118 3119 3118 3117 3116 3115 3115 3115 3116 3115 3115 3114 3113 3112 3111 3110 3109 3107 3105 3103 3101 3099 3098 3096 3094 3092 3090 3088 3086 3084 3083 3081 3080 3078 3077 3076 3074 3073 3072 3071 3070 3069 3068 3067 3066 3065 3064 3063 3061 3060 3058 3057 3055 3054 3052 3051 3049 3047 3045 3044 3042 3040 3039 3037 3036 3034 3033 3031 3030 3028
3123 3124 3125 3125 3125 3124 3123 3121 3120 3120 3120 3119 3119 3118 3118 3118 3118 3118 3117 3117 3116 3116 3116 3115 3115 3113 3112 3112 3111 3110 3109 3108 3107 3105 3103 3101 3099 3097 3096 3094 3092 3090 3088 3087 3085 3083 3081 3080 3078 3076 3075 3073 3071 3070 3069 3068 3066 3065 3064 3063 3062 3061 3060 3058 3057 3056 3054 3053 3051 3050 3048 3047 3045 3043 3041 3039 3037 3035 3033 3031 3030 3028 3026 3024 3022 3021
3123 3125 3125 3125 3124 3123 3122 3121 3120 3120 3119 3118 3118 3118 3117 3117 3117 3117 3117 3117 3117 3116 3116 3116 3114 3111 3109 3110 3109 3108 3108 3106 3105 3103 3102 3100 3098 3096 3094 3092 3090 3088 3086 3085 3083 3081 3080 3078 3076 3074 3072 3071 3069 3068 3066 3064 3063 3062 3061 3059 3058 3057 3055 3054 3052 3051 3050 3048 3047 3045 3043 3042 3040 3038 3035 3033 3031 3029 3027 3025 3023 3021 3018 3016 3014 3013
3124 3126 3126 3126 3124 3123 3122 3121 3120 3120 3119 3118 3118 3117 3117 3117 3117 3117 3116 3117 3116 3117 3116 3115 3114 3110 3107 3107 3107 3106 3105 3104 3103 3102 3100 3099 3097 3095 3093 3091 3089 3087 3085 3083 3081 3079 3077 3075 3074 3072 3070 3068 3066 3065 3063 3061 3060 3058 3057 3055 3054 3052 3051 3049 3048 3046 3045 3043 3041 3040 3038 3036 3033 3031 3029 3026 3024 3022 3020 3018 3016 3014 3011 3009 3007 3005
3126 3127 3127 3126 3125 3124 3122 3120 3120 3119 3118 3118 3118 3117 3117 3116 3116 3116 3116 3116 3116 3116 3116 3114 3113 3110 3106 3105 3105 3104 3103 3102 3101 3099 3098 3097 3095 3093 3091 3089 3087 3085 3083 3081 3079 3077 3075 3073 3071 3069 3067 3065 3063 3061 3059 3058 3056 3054 3053 3051 3049 3048 3046 3045 3043 3041 3040 3038 3036 3033 3031 3029 3027 3024 3022 3019 3017 3015 3013 3011 3009 3007 3004 3002 3000 2998
3127 3127 3126 3126 3124 3123 3121 3121 3121 3119 3119 3118 3118 3117 3116 3116 3115 3115 3115 3115 3115 3115 3114 3113 3112 3110 3106 3104 3104 3102 3101 3100 3098 3097 3096 3095 3093 3091 3089 3087 3084 3082 3080 3078 3076 3074 3072 3070 3068 3066 3064 3062 3060 3057 3055 3054 3052 3050 3048 3046 3044 3043 3041 3039 3038 3036 3034 3032 3029 3027 3025 3022 3020 3017 3015 3012 3010 3008 3005 3003 3001 2999 2997 2995 2992 2991
3127 3126 3126 3125 3124 3123 3122 3122 3121 3120 3119 3118 3118 3116 3116 3115 3114 3114 3114 3114 3114 3113 3113 3112 3111 3110 3106 3102 3102 3100 3098 3097 3096 3095 3093 3092 3091 3089 3087 3084 3082 3079 3077 3075 3073 3072 3070 3067 3065 3063 3061 3059 3056 3054 3052 3050 3047 3045 3043 3041 3039 3038 3036 3034 3032 3030 3028 3025 3023 3020 3018 3015 3013 3010 3008 3005 3003 3001 2998 2996 2994 2992 2990 2988 2985 2983
3127 3127 3126 3125 3124 3123 3123 3122 3121 3120 3119 3118 3117 3116 3115 3114 3112 3112 3113 3113 3113 3112 3111 3110 3110 3111 3106 3100 3099 3099 3096 3096 3094 3093 3092 3090 3088 3087 3084 3082 3080 3077 3075 3073 3071 3069 3066 3064 3062 3060 3058 3055 3053 3050 3048 3046 3043 3041 3039 3037 3035 3033 3030 3028 3026 3024 3021 3018 3016 3013 3011 3008 3006 3003 3001 2998 2996 2994 2991 2989 2987 2985 2983 2981 2978 2977
3127 3127 3126 3125 3125 3125 3124 3123 3121 3120 3120 3119 3117 3115 3114 3113 3112 3112 3112 3112 3112 3111 3109 3109 3109 3110 3106 3099 3097 3097 3095 3094 3093 3091 3090 3087 3085 3084 3081 3079 3077 3075 3072 3070 3068 3065 3063 3061 3058 3056 3054 3051 3049 3046 3044 3041 3039 3036 3034 3032 3029 3027 3025 3022 3020 3017 3015 3012 3009 3006 3004 3001 2999 2996 2993 2991 2989 2986 2984 2982 2980 2978 2976 2974 2972 2970
3127 3126 3126 3126 3125 3125 3124 3123 3122 3121 3120 3118 3116 3114 3113 3113 3112 3112 3113 3113 3112 3110 3108 3108 3108 3106 3102 3096 3095 3095 3093 3092 3091 3089 3087 3085 3082 3080 3078 3076 3074 3072 3069 3067 3064 3062 3059 3057 3054 3052 3049 3047 3044 3042 3039 3037 3034 3031 3029 3027 3024 3022 3019 3016 3014 3011 3008 3005 3002 3000 2997 2995 2992 2989 2986 2984 2982 2979 2977 2975 2973 2971 2969 2967 2965 2963
3127 3127 3126 3126 3125 3125 3124 3123 3122 3121 3119 3117 3116 3115 3114 3114 3115 3115 3115 3114 3111 3108 3106 3106 3107 3103 3097 3094 3094 3093 3092 3091 3089 3087 3084 3082 3079 3077 3074 3072 3070 3068 3066 3063 3060 3058 3055 3053 3050 3047 3045 3042 3039 3037 3034 3032 3029 3026 3024 3021 3019 3016 3014 3011 3008 3005 3002 2999 2996 2993 2991 2988 2986 2983 2980 2977 2975 2972 2970 2968 2966 2964 2963 2960 2958 2957
3128 3128 3127 3127 3126 3125 3124 3123 3122 3121 3120 3118 3117 3117 3116 3116 3117 3117 3116 3114 3111 3108 3105 3104 3103 3100 3095 3092 3091 3091 3090 3089 3086 3084 3082 3079 3077 3074 3072 3070 3067 3064 3062 3059 3056 3054 3051 3048 3045 3043 3040 3037 3035 3032 3029 3027 3024 3021 3019 3016 3013 3010 3008 3004 3002 2999 2996 2992 2990 2987 2984 2981 2979 2976 2974 2971 2968 2966 2963 2961 2959 2958 2956 2954 2952 2951
3129 3128 3128 3127 3126 3125 3124 3123 3122 3121 3120 3119 3118 3118 3117 3117 3117 3116 3116 3114 3111 3109 3104 3100 3099 3096 3093 3090 3089 3088 3087 3086 3084 3081 3079 3076 3074 3071 3069 3067 3064 3061 3059 3056 3052 3050 3047 3044 3041 3038 3035 3033 3030 3027 3024 3022 3019 3016 3013 3010 3007 3004 3002 2998 2996 2993 2990 2986 2983 2980 2977 2974 2972 2969 2967 2965 2962 2959 2957 2955 2953 2951 2950 2948 2946 2945
3128 3128 3127 3126 3126 3125 3124 3123 3122 3121 3121 3120 3119 3118 3117 3117 3116 3116 3114 3112 3112 3110 3103 3097 3095 3092 3091 3089 3086 3086 3084 3082 3081 3078 3076 3074 3071 3068 3065 3063 3061 3058 3055 3052 3049 3046 3043 3039 3036 3033 3031 3028 3025 3022 3019 3017 3014 3010 3008 3005 3001 2999 2996 2993 2990 2987 2984 2981 2977 2974 2971 2968 2965 2963 2960 2958 2955 2953 2951 2948 2946 2945 2943 2942 2940 2939
3129 3128 3127 3127 3126 3125 3124 3123 3123 3122 3121 3120 3119 3119 3118 3117 3116 3116 3114 3112 3112 3110 3101 3095 3093 3090 3088 3086 3083 3082 3081 3079 3078 3075 3072 3070 3068 3064 3061 3059 3056 3053 3050 3047 3044 3041 3038 3034 3031 3028 3025 3022 3019 3016 3013 3010 3007 3004 3001 2999 2996 2993 2990 2987 2984 2982 2978 2974 2970 2967 2964 2961 2958 2956 2953 2951 2949 2946 2944 2942 2940 2938 2937 2936 2934 2933
3129 3127 3126 3126 3126 3125 3124 3123 3122 3121 3120 3120 3119 3119 3118 3117 3116 3116 3115 3112 3111 3109 3101 3093 3091 3088 3085 3083 3080 3079 3078 3076 3074 3072 3069 3066 3064 3061 3057 3054 3052 3048 3045 3042 3039 3036 3032 3029 3026 3022 3019 3015 3012 3009 3005 3003 2999 2996 2994 2991 2988 2985 2982 2980 2977 2974 2971 2967 2963 2960 2958 2955 2952 2949 2946 2944 2942 2940 2938 2936 2934 2932 2931 2929 2928 2927
3129 3128 3126 3125 3125 3124 3123 3122 3122 3120 3120 3119 3118 3118 3117 3117 3116 3115 3114 3112 3110 3109 3102 3094 3089 3085 3081 3080 3078 3077 3075 3073 3071 3068 3065 3063 3060 3057 3053 3050 3047 3043 3040 3037 3033 3030 3027 3023 3020 3016 3012 3008 3005 3001 2998 2995 2991 2988 2985 2981 2978 2975 2972 2970 2968 2966 2963 2960 2956 2953 2951 2948 2945 2942 2939 2937 2935 2933 2931 2929 2928 2926 2925 2923 2922 2921
3129 3128 3126 3125 3124 3123 3122 3121 3120 3119 3119 3118 3117 3116 3116 3115 3115 3113 3112 3110 3109 3108 3104 3097 3089 3080 3076 3077 3076 3074 3072 3070 3067 3064 3061 3059 3056 3053 3050 3046 3043 3039 3035 3031 3028 3024 3021 3017 3014 3010 3006 3002 2998 2994 2991 2988 2984 2981 2977 2973 2970 2966 2963 2961 2959 2957 2956 2953 2949 2946 2944 2941 2938 2935 2932 2930 2928 2926 2925 2923 2921 2920 2918 2917 2916 2915
3128 3127 3126 3124 3123 3122 3120 3119 3118 3117 3117 3116 3115 3115 3114 3113 3114 3113 3111 3108 3107 3106 3102 3098 3089 3073 3069 3073 3072 3071 3069 3066 3064 3060 3057 3054 3052 3048 3045 3042 3038 3033 3030 3027 3023 3019 3015 3012 3008 3004 3000 2996 2992 2988 2984 2981 2977 2973 2970 2966 2963 2959 2956 2954 2952 2950 2948 2946 2943 2940 2936 2933 2931 2928 2926 2923 2921 2919 2918 2916 2915 2914 2912 2911 2910 2909
3128 3127 3125 3123 3121 3120 3119 3118 3117 3116 3115 3114 3114 3113 3111 3111 3111 3111 3109 3105 3105 3103 3098 3097 3088 3068 3064 3071 3070 3067 3066 3063 3061 3058 3053 3050 3047 3044 3040 3037 3033 3029 3025 3022 3018 3014 3010 3006 3003 2999 2995 2991 2986 2982 2978 2974 2970 2966 2963 2960 2957 2953 2951 2948 2946 2944 2942 2940 2937 2933 2929 2926 2924 2921 2919 2916 2914 2912 2911 2910 2909 2907 2906 2905 2904 2903
3127 3126 3124 3122 3120 3119 3118 3117 3116 3115 3114 3113 3112 3111 3110 3109 3107 3108 3106 3103 3102 3098 3094 3096 3084 3062 3061 3069 3067 3064 3063 3059 3058 3055 3050 3046 3042 3039 3036 3031 3028 3024 3020 3017 3012 3009 3005 3001 2997 2993 2989 2984 2980 2976 2972 2968 2965 2962 2958 2955 2952 2948 2945 2942 2939 2937 2935 2933 2930 2926 2922 2919 2916 2914 2911 2909 2907 2906 2904 2903 2902 2901 2900 2899 2898 2897
3126 3125 3124 3122 3120 3118 3116 3115 3114 3114 3113 3111 3109 3108 3107 3106 3105 3104 3102 3101 3098 3091 3091 3093 3077 3057 3059 3066 3064 3062 3060 3056 3054 3051 3047 3043 3038 3034 3031 3026 3023 3019 3014 3011 3007 3003 3000 2995 2991 2986 2981 2977 2973 2970 2967 2963 2960 2957 2953 2950 2946 2943 2940 2936 2933 2930 2928 2926 2923 2919 2915 2912 2909 2907 2904 2901 2900 2898 2897 2896 2895 2894 2893 2893 2892 2891
3126 3124 3123 3122 3121 3118 3116 3114 3113 3112 3111 3108 3106 3105 3103 3102 3102 3100 3100 3099 3093 3085 3085 3085 3070 3054 3057 3062 3059 3059 3057 3052 3050 3047 3043 3039 3034 3029 3025 3021 3017 3013 3009 3006 3002 2998 2994 2989 2985 2980 2976 2972 2968 2964 2961 2957 2954 2950 2946 2943 2940 2937 2933 2930 2927 2924 2921 2918 2915 2912 2909 2906 2903 2900 2897 2894 2892 2891 2891 2890 2889 2888 2887 2886 2885 2884
3124 3123 3122 3121 3119 3117 3115 3113 3112 3110 3107 3105 3103 3102 3100 3098 3097 3097 3097 3093 3087 3082 3077 3073 3066 3056 3054 3055 3055 3054 3052 3048 3045 3041 3037 3034 3029 3025 3020 3016 3012 3009 3005 3002 2998 2993 2989 2984 2980 2976 2972 2968 2964 2960 2956 2951 2947 2943 2938 2935 2931 2928 2925 2922 2919 2917 2914 2912 2909 2905 2902 2899 2896 2892 2889 2887 2885 2884 2884 2883 2882 2881 2880 2879 2878 2877
3123 3121 3120 3119 3116 3115 3112 3111 3111 3109 3105 3102 3100 3099 3098 3097 3094 3093 3091 3085 3083 3081 3071 3063 3064 3060 3053 3052 3052 3050 3048 3044 3040 3036 3032 3028 3024 3020 3016 3012 3008 3004 3001 2997 2993 2988 2983 2979 2975 2971 2967 2963 2958 2954 2948 2943 2938 2934 2929 2926 2923 2920 2917 2914 2912 2909 2907 2905 2902 2899 2895 2892 2888 2885 2882 2880 2879 2878 2877 2876 2875 2874 2874 2873 2872 2871
3121 3119 3118 3116 3114 3113 3111 3109 3108 3106 3102 3099 3097 3095 3094 3093 3090 3087 3084 3080 3080 3078 3066 3059 3061 3058 3052 3050 3049 3046 3044 3040 3035 3032 3027 3023 3019 3015 3011 3007 3003 2999 2996 2991 2987 2983 2978 2973 2969 2965 2960 2955 2950 2945 2940 2935 2930 2925 2921 2917 2914 2912 2909 2907 2904 2902 2900 2898 2895 2892 2888 2885 2881 2878 2876 2873 2872 2871 2871 2870 2869 2868 2867 2866 2865 2864
3120 3117 3115 3113 3110 3109 3109 3108 3105 3102 3098 3095 3094 3092 3090 3088 3086 3083 3079 3078 3076 3070 3063 3060 3057 3053 3050 3049 3045 3042 3041 3036 3032 3028 3024 3019 3014 3010 3005 3001 2997 2993 2989 2985 2980 2976 2971 2967 2962 2957 2952 2947 2942 2937 2932 2927 2922 2918 2914 2911 2907 2904 2902 2899 2897 2895 2893 2890 2887 2884 2881 2878 2875 2871 2869 2867 2865 2865 2864 2863 2862 2862 2861 2860 2859 2858
3118 3114 3113 3110 3106 3103 3104 3104 3101 3098 3095 3091 3088 3087 3085 3083 3081 3079 3076 3075 3072 3066 3061 3060 3054 3048 3047 3047 3042 3038 3036 3032 3028 3024 3019 3014 3009 3004 2999 2995 2991 2987 2982 2978 2973 2968 2963 2958 2954 2949 2944 2939 2934 2929 2924 2919 2915 2911 2907 2904 2901 2898 2895 2893 2890 2888 2885 2882 2879 2876 2873 2871 2868 2864 2862 2860 2859 2858 2858 2857 2856 2855 2855 2854 2853 2852
3115 3112 3110 3109 3103 3097 3098 3099 3096 3094 3091 3086 3083 3081 3081 3079 3077 3075 3073 3071 3068 3064 3059 3057 3052 3046 3044 3043 3038 3033 3030 3027 3023 3018 3013 3008 3003 2999 2993 2989 2984 2980 2975 2970 2965 2960 2956 2951 2946 2941 2936 2930 2925 2920 2915 2911 2907 2904 2901 2898 2895 2892 2889 2886 2884 2881 2878 2875 2872 2868 2865 2863 2860 2857 2855 2854 2853 2852 2851 2851 2850 2850 2849 2848 2846 2845
3113 3110 3108 3107 3101 3093 3094 3095 3091 3089 3085 3080 3077 3077 3076 3074 3072 3069 3068 3067 3065 3062 3058 3053 3049 3045 3042 3039 3034 3027 3023 3020 3016 3012 3008 3002 2998 2993 2988 2983 2978 2973 2968 2964 2959 2954 2949 2944 2938 2933 2927 2922 2917 2912 2908 2905 2901 2898 2895 2892 2888 2885 2883 2880 2877 2874 2870 2867 2863 2860 2858 2856 2853 2850 2849 2848 2847 2846 2846 2845 2845 2844 2843 2842 2841 2840
3110 3107 3106 3105 3099 3091 3090 3091 3088 3086 3081 3075 3073 3074 3072 3069 3067 3064 3063 3063 3062 3059 3056 3050 3046 3043 3039 3035 3030 3023 3018 3014 3011 3008 3004 2999 2993 2987 2982 2978 2973 2967 2963 2958 2952 2947 2942 2936 2931 2925 2919 2914 2910 2905 2901 2897 2895 2892 2888 2885 2882 2879 2876 2873 2870 2866 2862 2859 2855 2853 2850 2848 2846 2844 2843 2842 2841 2841 2840 2840 2839 2838 2837 2836 2835 2834
3107 3105 3103 3101 3097 3090 3088 3089 3086 3079 3074 3071 3071 3071 3069 3066 3064 3061 3058 3059 3059 3056 3052 3047 3043 3039 3035 3030 3026 3020 3013 3009 3006 3004 3000 2995 2989 2982 2977 2972 2967 2962 2956 2951 2946 2940 2935 2928 2922 2916 2910 2906 2901 2897 2893 2889 2886 2883 2880 2877 2875 2872 2870 2866 2862 2858 2855 2852 2849 2846 2843 2841 2840 2839 2838 2837 2836 2835 2835 2834 2833 2832 2831 2830 2829 2828
3105 3103 3100 3098 3096 3090 3087 3089 3084 3073 3066 3067 3068 3067 3065 3063 3061 3057 3052 3051 3053 3051 3046 3042 3038 3034 3029 3024 3020 3016 3009 3004 3001 3000 2996 2989 2983 2978 2972 2967 2962 2956 2951 2945 2939 2933 2926 2919 2913 2907 2902 2898 2893 2888 2884 2880 2877 2874 2872 2870 2868 2866 2863 2859 2855 2851 2848 2845 2842 2839 2837 2835 2834 2833 2832 2832 2831 2830 2829 2829 2828 2827 2826 2824 2823 2823
3103 3101 3098 3096 3094 3090 3086 3084 3078 3068 3061 3061 3063 3062 3062 3059 3057 3054 3047 3044 3047 3047 3042 3037 3032 3028 3024 3019 3015 3011 3005 2998 2995 2995 2991 2983 2978 2973 2968 2962 2957 2950 2945 2939 2932 2925 2918 2912 2906 2901 2895 2890 2885 2880 2876 2872 2870 2868 2867 2865 2862 2859 2855 2851 2848 2845 2841 2838 2836 2833 2832 2831 2830 2829 2828 2827 2826 2825 2824 2823 2822 2822 2820 2819 2818 2817
3101 3099 3097 3095 3092 3089 3086 3081 3076 3069 3061 3058 3060 3061 3059 3056 3055 3052 3044 3039 3042 3042 3037 3032 3027 3022 3019 3014 3009 3005 3000 2993 2987 2986 2982 2976 2971 2967 2962 2956 2951 2944 2937 2931 2923 2917 2912 2905 2899 2894 2888 2882 2877 2872 2869 2866 2864 2862 2860 2857 2854 2851 2847 2844 2841 2837 2835 2832 2831 2829 2827 2826 2825 2824 2823 2822 2821 2820 2819 2818 2817 2816 2815 2814 2813 2812
3098 3096 3094 3093 3089 3087 3086 3082 3078 3070 3060 3058 3060 3059 3056 3054 3052 3049 3041 3035 3036 3037 3033 3028 3024 3019 3014 3010 3005 3000 2996 2989 2982 2979 2975 2970 2965 2961 2955 2949 2943 2937 2931 2924 2917 2910 2904 2898 2892 2886 2881 2875 2870 2865 2862 2859 2856 2854 2851 2849 2845 2842 2839 2836 2833 2830 2829 2827 2826 2824 2823 2822 2821 2820 2819 2818 2817 2815 2814 2813 2812 2811 2810 2809 2808 2807
3095 3093 3091 3088 3086 3085 3083 3080 3075 3067 3059 3058 3059 3057 3054 3052 3049 3046 3040 3033 3032 3032 3029 3024 3020 3015 3010 3006 3001 2997 2993 2986 2979 2974 2970 2965 2961 2955 2949 2942 2936 2929 2923 2917 2911 2904 2897 2891 2884 2878 2873 2868 2863 2859 2855 2852 2849 2846 2843 2840 2838 2835 2832 2829 2827 2826 2824 2823 2822 2821 2819 2818 2817 2816 2814 2813 2812 2811 2810 2809 2808 2806 2805 2804 2803 2802
3091 3090 3087 3084 3083 3082 3080 3076 3069 3061 3058 3058 3058 3055 3053 3049 3045 3043 3039 3033 3030 3028 3024 3021 3017 3011 3007 3003 2998 2994 2990 2985 2978 2972 2967 2961 2955 2950 2944 2937 2931 2924 2917 2910 2903 2896 2889 2883 2877 2872 2867 2862 2857 2853 2849 2846 2843 2840 2837 2834 2832 2829 2827 2825 2824 2822 2821 2820 2818 2817 2816 2814 2813 2812 2810 2809 2808 2806 2805 2804 2803 2802 2801 2800 2799 2797
3089 3087 3084 3081 3080 3078 3076 3073 3066 3058 3055 3056 3055 3053 3050 3047 3043 3040 3036 3033 3029 3024 3020 3017 3013 3008 3004 3000 2995 2990 2986 2981 2975 2969 2962 2956 2950 2943 2937 2931 2924 2918 2911 2903 2896 2889 2883 2877 2872 2867 2862 2857 2853 2848 2845 2842 2838 2836 2833 2831 2828 2826 2824 2822 2821 2820 2818 2817 2815 2814 2812 2811 2809 2808 2807 2805 2804 2802 2801 2800 2799 2798 2797 2796 2794 2793
3086 3084 3080 3078 3078 3076 3073 3071 3066 3058 3054 3054 3052 3050 3048 3045 3041 3037 3032 3028 3026 3021 3016 3013 3008 3004 2999 2995 2990 2986 2981 2975 2969 2963 2957 2951 2944 2938 2931 2924 2917 2910 2903 2896 2890 2884 2878 2873 2868 2863 2858 2853 2849 2845 2842 2838 2835 2833 2830 2828 2826 2824 2822 2820 2819 2817 2816 2814 2812 2811 2809 2808 2806 2805 2803 2802 2800 2799 2798 2796 2795 2794 2793 2792 2790 2789
3082 3081 3078 3076 3075 3074 3070 3067 3063 3058 3055 3053 3051 3047 3045 3042 3039 3034 3028 3024 3021 3016 3012 3008 3004 2999 2995 2990 2985 2980 2975 2970 2964 2957 2952 2945 2939 2932 2925 2918 2911 2904 2897 2891 2885 2880 2874 2869 2864 2860 2855 2851 2846 2842 2839 2836 2833 2831 2828 2826 2824 2822 2820 2818 2817 2815 2813 2812 2810 2808 2806 2805 2803 2802 2800 2798 2796 2795 2794 2792 2791 2790 2789 2788 2786 2784
3078 3077 3075 3072 3070 3069 3065 3060 3057 3055 3053 3051 3048 3044 3042 3039 3035 3030 3025 3021 3017 3012 3008 3004 3000 2995 2990 2985 2980 2975 2969 2964 2958 2951 2945 2939 2932 2925 2918 2912 2906 2899 2893 2888 2882 2876 2871 2866 2862 2857 2853 2849 2844 2841 2837 2834 2831 2829 2827 2825 2822 2820 2818 2817 2815 2813 2811 2809 2807 2805 2804 2802 2800 2798 2797 2795 2793 2792 2790 2789 2788 2787 2785 2784 2782 2780
3074 3072 3070 3067 3064 3062 3058 3055 3053 3051 3049 3047 3044 3041 3038 3034 3030 3027 3022 3018 3013 3009 3004 2999 2994 2990 2985 2980 2975 2970 2964 2958 2951 2945 2939 2933 2926 2920 2914 2908 2902 2896 2890 2884 2878 2873 2869 2865 2860 2856 2851 2847 2843 2839 2836 2833 2830 2827 2825 2823 2821 2819 2817 2815 2813 2811 2809 2807 2805 2803 2801 2799 2797 2796 2794 2792 2790 2789 2787 2786 2784 2783 2782 2780 2778 2776
3070 3068 3065 3063 3060 3057 3053 3050 3049 3047 3044 3043 3040 3037 3034 3030 3026 3022 3018 3013 3009 3005 3000 2995 2990 2985 2980 2975 2970 2964 2958 2952 2946 2940 2934 2928 2921 2915 2909 2903 2898 2892 2886 2880 2875 2871 2867 2863 2858 2854 2849 2846 2842 2838 2835 2832 2829 2827 2824 2822 2819 2817 2815 2813 2811 2809 2807 2804 2802 2800 2798 2796 2795 2793 2791 2789 2788 2786 2784 2783 2781 2780 2778 2777 2775 2772
3066 3063 3061 3059 3056 3053 3050 3047 3045 3042 3040 3040 3037 3032 3029 3025 3021 3017 3013 3008 3004 3000 2996 2992 2987 2981 2976 2970 2965 2959 2953 2947 2941 2935 2929 2923 2917 2911 2905 2899 2894 2888 2883 2878 2873 2869 2865 2861 2856 2852 2848 2844 2841 2838 2834 2831 2829 2826 2823 2821 2818 2816 2814 2811 2809 2807 2805 2802 2800 2798 2796 2794 2792 2790 2789 2787 2785 2783 2782 2780 2778 2777 2775 2773 2771 2769
3063 3060 3058 3055 3052 3049 3047 3045 3041 3037 3035 3035 3032 3027 3023 3019 3016 3012 3008 3004 3000 2995 2991 2987 2982 2977 2972 2966 2960 2954 2948 2942 2936 2931 2925 2919 2912 2907 2901 2896 2890 2885 2880 2876 2871 2867 2863 2859 2855 2851 2847 2843 2840 2837 2834 2831 2828 2825 2823 2820 2817 2815 2812 2810 2808 2805 2803 2800 2798 2796 2794 2792 2790 2788 2786 2784 2782 2781 2779 2777 2775 2773 2772 2770 2767 2765
3059 3057 3055 3052 3048 3046 3045 3043 3038 3033 3030 3030 3028 3024 3019 3015 3012 3008 3004 3000 2996 2991 2987 2982 2977 2972 2967 2962 2956 2950 2944 2938 2933 2927 2920 2914 2908 2903 2898 2892 2887 2883 2878 2874 2870 2866 2861 2857 2853 2850 2846 2843 2840 2836 2833 2830 2827 2824 2822 2819 2816 2814 2811 2808 2806 2804 2801 2799 2796 2794 2792 2790 2788 2785 2783 2781 2779 2778 2776 2774 2772 2769 2768 2766 2765 2762
3055 3053 3052 3049 3045 3043 3042 3040 3037 3032 3029 3027 3025 3020 3015 3011 3008 3004 3000 2996 2992 2987 2983 2978 2973 2967 2962 2956 2951 2945 2940 2934 2928 2922 2916 2910 2905 2899 2894 2889 2884 2880 2876 2872 2868 2864 2860 2856 2852 2848 2845 2842 2839 2836 2832 2829 2826 2823 2821 2818 2815 2812 2809 2807 2804 2802 2799 2797 2794 2792 2789 2787 2785 2783 2781 2778 2776 2774 2773 2771 2770 2767 2764 2761 2759 2758